CAPE
0 0 11 204 257 532 100 3 6 17 32 41 79 247 142 96 174 87 256 412 376 437 1006 1598 1754 1861 1893 1542 1906 1909 2023 2069 1805 1739 1775 1883 1319 1720 1716 1817 1727 1713 1665 1616 1555 1583 1522 1416 941
0 0 154 311 123 55 44 15 13 3 0 44 215 55 15 2 18 238 276 403 412 502 984 1032 1457 1794 1864 1610 1821 1988 1978 1929 1959 1896 1706 1988 1528 1728 1807 1743 1720 1356 1271 962 754 969 1134 1437 1072
0 1 189 35 53 50 17 34 4 0 3 301 165 16 0 0 38 121 319 487 286 909 835 737 930 990 1540 1562 1717 1692 1747 2063 1708 1663 1717 1809 1884 1794 1721 1891 1885 1659 1727 1703 1448 1361 1114 1448 951
8 385 432 93 29 147 40 4 0 68 87 61 0 0 1 0 31 214 376 320 818 880 387 695 1406 1523 982 1612 1685 1598 1883 1887 1707 1668 1880 1950 1956 1786 1502 1370 1327 1595 1749 1631 1726 1456 1096 1294 819
43 445 147 77 125 136 35 0 46 71 151 25 0 0 0 0 27 364 423 648 759 641 247 1408 1522 1565 1522 1147 1370 1399 1922 1854 1867 1528 1897 2101 1724 994 1519 1616 1915 1722 1821 1781 1684 1281 1138 1026 638
245 525 160 155 0 143 21 21 54 116 162 0 0 1 0 0 306 292 274 384 531 423 669 1047 1559 1688 1476 1447 1471 1605 1794 1712 1612 1840 1669 2033 1872 1396 1690 1846 1923 1791 1697 1612 1476 1102 1108 891 405
117 304 229 47 11 79 27 59 140 90 35 9 0 0 0 68 158 40 248 289 280 343 555 835 1142 1505 1571 1660 1767 1691 1802 1715 1684 1821 1757 2066 1834 1692 1947 1916 1797 1723 1712 1708 1557 1172 889 373 56
266 352 173 63 0 37 94 190 162 101 13 2 1 2 15 144 4 152 178 390 520 636 168 837 997 1036 1061 1397 1445 1581 1480 1626 1542 1677 1782 2104 2036 1813 1792 1912 1861 1680 1550 1603 1567 1539 1047 121 105
343 436 226 133 2 47 287 235 209 94 84 40 25 0 35 64 28 68 223 266 434 756 477 872 1038 981 1179 1289 1346 1486 1401 1495 1164 1274 1236 1526 1367 1390 1840 1551 1747 1672 1579 1384 1417 1330 860 891 757
282 128 325 297 181 5 283 136 167 159 113 59 27 37 33 59 1 30 238 267 405 517 348 739 763 928 869 715 1228 1035 1118 953 834 344 362 906 1321 1641 1472 1827 1724 1490 1252 1248 1320 1584 1399 1285 1068
230 180 316 313 249 56 328 176 136 98 72 67 29 4 51 31 5 47 34 45 111 416 601 661 285 632 594 681 1267 549 824 574 32 0 48 467 782 759 1086 1086 1226 1294 1535 956 1045 1512 1571 1910 1890
255 217 330 212 127 188 222 219 150 84 99 48 38 13 13 18 17 43 56 181 330 182 358 377 429 390 511 702 955 997 1048 102 0 0 0 252 983 770 484 1105 1445 1888 189 77 173 645 739 601 328
173 286 271 133 163 121 30 128 228 93 93 46 53 34 0 21 15 44 62 136 154 125 165 483 352 468 661 706 627 470 953 1064 661 37 0 487 788 1027 869 957 871 565 661 324 870 635 519 685 681
274 331 222 103 117 83 120 80 159 47 43 56 41 29 13 20 33 30 24 21 100 91 402 522 407 496 734 477 827 356 607 910 742 746 321 577 1008 1001 870 1049 1024 634 543 1108 609 1122 844 857 445
356 261 131 58 68 89 71 31 90 5 34 53 45 25 23 29 32 22 30 9 115 113 539 293 200 690 309 518 419 384 606 865 1048 957 1399 1085 1247 1516 1229 944 959 821 862 1146 804 940 694 633 686
237 99 102 70 50 35 36 27 80 18 45 69 52 33 23 38 15 31 26 26 80 84 252 359 244 128 146 155 683 841 742 519 864 1188 1070 1512 1345 1448 1538 865 1021 834 852 1509 1387 994 953 529 864
258 58 28 52 56 52 20 76 39 79 50 62 68 42 19 52 37 42 18 36 140 81 286 376 99 162 468 1053 343 436 517 557 759 1040 1165 1442 1334 1395 1689 1727 777 594 1204 1300 1472 806 833 446 595
74 167 40 22 31 38 27 50 0 58 99 61 71 38 44 26 39 47 29 118 103 85 220 230 127 264 265 789 743 906 554 748 454 1006 1467 1546 1388 1541 1709 1494 915 1610 1177 182 1005 558 676 1369 543
26 42 51 44 44 6 8 0 7 62 76 79 72 55 79 27 46 38 61 140 7 62 351 282 265 666 532 699 91 339 670 595 948 1481 1426 1504 1465 1294 1936 1780 1113 0 516 1500 1394 632 1466 1091 258
9 88 73 122 15 22 7 2 0 31 63 115 59 74 50 32 34 34 44 82 14 156 161 357 674 717 453 437 534 612 556 392 912 1294 1250 1263 1429 1405 1766 1510 1380 793 870 1382 1280 1364 1711 1373 1002
62 95 127 90 51 20 5 10 0 8 47 101 117 67 79 27 9 43 52 69 183 226 277 568 572 519 782 930 542 108 577 583 867 913 1131 1187 1442 1502 1689 1419 1290 830 844 1218 1535 2041 1817 1933 705
109 144 56 83 18 32 22 1 7 0 43 69 133 110 115 60 83 54 43 51 95 443 268 446 703 603 688 915 647 327 489 666 640 968 965 1152 1200 1181 1284 1458 1341 49 0 853 1819 1637 1758 2426 2180
3 54 201 58 38 22 54 0 0 0 14 56 61 99 54 127 29 98 27 113 37 29 542 472 549 698 743 1190 593 545 466 394 700 1044 983 1410 1178 1260 1174 1410 1427 848 626 1032 2166 1718 1972 2316 1255
0 114 31 0 25 41 25 9 0 0 0 5 65 79 70 27 74 49 92 34 214 63 314 429 528 411 541 709 662 821 323 330 706 663 662 995 1151 1113 952 1320 1425 979 1089 1453 1567 1851 2076 1915 572
8 55 49 56 60 15 20 24 0 0 0 0 4 30 55 47 61 49 67 204 222 154 343 626 842 495 585 858 860 667 350 200 577 771 676 721 903 1095 846 1141 1247 1381 1339 1481 1595 1917 1934 1828 1788
2 0 88 25 31 23 33 11 23 0 0 4 5 31 48 117 116 126 41 180 108 170 243 356 811 717 544 798 771 638 740 703 773 611 548 222 688 992 1195 1088 1292 1162 1241 1458 1552 1581 1375 1699 1664
2 0 15 166 3 37 0 4 51 14 8 12 10 12 45 88 20 58 270 176 144 113 176 884 732 592 773 750 692 624 876 709 622 559 109 47 1022 896 1298 1122 1177 995 1019 1366 1366 1273 1142 1247 1780
0 5 12 106 0 1 3 48 46 114 75 141 72 65 86 58 104 90 130 150 11 67 96 819 794 1023 725 519 757 610 892 693 789 926 809 768 565 39 0 922 776 990 968 859 1177 1035 1090 1082 1305
0 0 0 6 45 6 5 108 20 181 63 331 224 174 120 1 2 132 104 156 91 240 335 843 700 687 614 692 454 460 413 483 821 720 901 1055 245 44 800 1116 1095 1020 1054 844 1089 1067 763 1161 1326
0 0 0 0 0 0 2 13 0 0 130 400 384 230 267 138 186 284 220 72 57 386 443 659 671 372 271 439 210 686 250 466 552 483 652 907 799 1128 894 1296 1205 1280 1152 1024 1177 1042 1039 831 868
CIN
0 0 -54 -6 -3 -5 -4 -14 -7 -3 -3 -3 -10 -14 -83 -36 -7 -67 -5 -5 -28 -50 -20 0 0 0 0 -3 0 0 0 0 -1 -1 0 0 -2 0 0 0 0 0 0 0 0 0 0 0 -16
0 -1 -6 -24 -9 -13 -2 -4 -1 -2 0 -10 -14 -32 -17 -31 -82 -37 -4 -3 -18 -29 -8 -20 -1 0 0 0 0 0 0 0 0 0 -1 0 -2 0 0 0 0 -1 -1 -10 -13 -5 -1 -1 -17
0 -5 -18 -51 -26 -9 -3 -2 -3 0 -2 -5 -12 -44 0 -2 -15 -17 -22 -10 -3 -6 -42 -61 -37 -24 0 0 0 0 0 0 -1 0 -2 -1 0 0 0 0 0 0 0 0 0 0 -9 -4 -29
-49 -4 -5 -98 -16 -12 -3 -1 0 -5 -2 -32 0 0 -2 -1 -33 -11 -45 -161 -32 -18 -79 -77 -13 -1 -27 0 0 0 0 0 0 -3 -1 0 0 0 0 -2 -3 0 0 0 0 0 -14 -10 -36
-32 -5 -30 -17 -13 -18 -4 0 -3 -3 -13 -18 0 0 -1 -1 -9 -7 -11 -7 -18 -30 -89 -12 -4 -2 -2 -12 -1 0 0 0 -1 -5 0 0 -1 -31 -4 -2 0 0 0 0 0 -4 -13 -28 -51
-6 -8 -9 -4 0 -49 -4 -4 -13 -17 -11 -12 0 -1 -1 0 -4 -5 -3 -23 -6 -16 -37 -26 -3 0 0 0 0 0 0 0 -1 0 -3 0 0 -17 -2 -1 0 0 0 0 -1 -23 -30 -47 -82
-17 -8 -2 -22 -31 -41 -3 -2 -11 -4 -9 -3 0 0 0 -2 -17 -4 -4 -21 -12 -4 -19 -9 -7 -1 0 0 0 0 0 -1 -2 0 -3 0 -4 -9 -2 0 -1 0 0 -3 -14 -38 -58 -96 -129
-1 -6 -2 -24 -2 -31 -11 -15 -17 -2 -28 -1 -1 -2 -1 -6 -13 -4 -8 -14 -2 -25 -73 -4 -5 -7 -4 0 -1 -1 -14 -5 -2 -5 -4 0 -1 -8 -10 -5 -2 -9 -15 -18 -27 -35 -60 -98 -84
-3 -1 -4 -5 -22 -25 -42 -19 -44 -38 -10 -14 -11 0 -3 -3 -4 -14 -25 -24 -18 -25 -48 -6 -2 -10 -5 -4 -3 -4 -9 -10 -12 -12 -19 -18 -31 -17 -2 -12 -17 -24 -31 -40 -49 -54 -74 -89 -81
-6 -11 -1 -10 -11 -75 -18 -48 -17 -9 -3 -4 -15 -4 -3 -5 -5 -4 -11 -11 -12 -7 -25 -9 -5 -14 -3 -2 -13 -5 -13 -14 -35 -73 -65 -298 -9 -3 -8 -19 -28 -40 -51 -48 -59 -59 -62 -69 -51
-12 -3 -1 -5 -27 -50 -21 -4 -3 -3 -7 -6 -5 -6 -3 -1 -1 -3 -2 -23 -45 -20 -15 -9 -19 -15 -13 -11 -5 -94 -34 -38 -84 0 -94 -70 -28 -25 -27 -40 -42 -47 -29 -79 -83 -48 -64 -28 -35
-4 -3 -11 -11 -21 -34 -46 -40 -5 -1 -6 -4 -3 -4 -4 -1 -2 -2 -1 -8 -29 -10 -15 -3 -20 -8 -18 -8 -6 -11 -8 -111 0 -5 0 -45 -18 -13 -26 -33 -25 -7 -83 -85 -93 -37 -4 -5 -8
-6 -4 -13 -2 -5 -26 -36 -33 -30 -19 -13 -2 -3 -2 -1 -3 -1 -2 -2 -15 -17 -25 -19 -20 -18 -15 -7 -11 -5 -16 -5 -8 -32 -109 0 -61 -11 -6 -6 -7 -31 -163 -55 -103 -45 -28 -10 -6 -1
-23 -8 -12 -16 -17 -54 -7 -20 -3 -28 -2 -4 -2 -4 -3 -2 -3 -2 -2 -4 -7 -16 -8 -23 -16 -13 -3 -14 -26 -31 -16 -8 -7 -41 -59 -57 -7 -8 -13 -9 -7 -27 -66 -29 -34 -20 -18 -13 -13
-23 -14 -14 -33 -38 -15 -48 -31 -1 -4 -4 -2 -3 -3 -1 -3 -2 -2 -2 -7 -4 -7 -21 -38 -26 -4 -6 -8 -19 -15 -16 -5 -4 -10 -4 -8 -7 -7 -3 -5 -8 -12 -14 -24 -17 -18 -6 -13 -16
-24 -31 0 -10 -33 -39 -56 -15 -4 -1 -3 -1 -2 -4 -1 -2 -3 -2 -3 -2 -9 -17 -21 -22 -12 -19 -18 -11 -9 -4 -3 -9 -5 -7 -7 -2 -15 -15 -13 -5 -9 -6 -27 -16 -19 -20 -30 -12 -18
-3 -9 -34 -1 -1 -7 -35 0 -33 -21 -2 -2 -3 -3 -3 -3 -2 -1 -3 -1 -34 -39 -3 -6 -17 -21 -7 -7 -18 -16 -12 -16 -7 -7 -5 -3 -17 -18 -14 -6 -12 -18 -21 -21 -19 -21 -24 -27 -8
-15 -3 -20 -18 -33 -16 -22 -7 0 -38 -36 -3 -2 -2 -3 -4 -5 -2 -3 -10 -21 -21 -4 -8 -17 -14 -13 -9 -11 -4 -12 -9 -20 -9 -10 -3 -10 -17 -8 -10 -12 -30 -27 -62 -21 -20 -29 -11 -23
-7 -23 -14 -11 -22 -33 -1 0 -61 -45 -60 -14 -4 -3 -14 -1 -4 -2 -5 -24 -25 -7 -3 -4 -11 -4 -7 -7 -27 -15 -4 -8 -9 -5 -8 -3 -4 -11 -7 -9 -27 0 -92 -14 -31 -56 -25 -10 -72
-10 -3 -35 -2 -44 -34 -42 -3 0 -49 -59 -32 -6 -5 -12 -29 -17 -4 -3 -20 -13 -6 -9 -11 -8 -6 -17 -12 -11 -11 -10 -19 -11 -3 -5 -12 -14 -13 -3 -11 -5 -44 -45 -11 -22 -35 -16 -18 -41
-10 -4 -48 -18 -8 -6 -48 -9 0 -60 -64 -85 -45 -8 -17 -60 -53 -4 -3 -3 -21 -29 -17 -8 -9 -5 -2 -2 -13 -34 -21 -13 -11 -10 -8 -8 -7 -6 -10 -8 -10 -43 -54 -25 -15 -9 -19 -18 -140
-3 -36 -58 -6 -11 -2 -21 -10 -4 0 -22 -45 -57 -6 -24 -15 -2 -17 -2 -6 -4 -24 -26 -15 -6 -6 -5 -6 -5 -25 -15 -5 -4 -6 -9 -13 -5 -17 -7 -4 -5 -61 0 -45 -16 -9 -25 -10 -11
-45 -15 -34 -9 -13 -27 -2 0 0 -3 -8 -10 -4 -32 -8 -23 -13 -14 -7 -4 -18 -5 -9 -22 -23 -14 -8 -9 -19 -15 -9 -14 -12 -9 -8 -3 -11 -3 -2 -3 -4 -40 -76 -43 -7 -10 -10 -14 -65
0 -24 -50 0 -30 -1 -31 -33 0 0 0 -46 -19 -37 -14 -17 -6 -50 -49 -25 -3 -7 -11 -28 -24 -15 -9 -6 -11 -7 -23 -34 -7 -10 -12 -12 -13 -9 -7 -3 -13 -17 -38 -8 -8 -17 -16 -11 -130
-28 -6 -6 -11 -1 -5 -31 -7 0 0 0 -7 -69 -36 -19 -26 -14 -24 -22 -26 -11 -19 -11 -18 -24 -23 -15 -5 -2 -7 -36 -73 -16 -10 -10 -16 -11 -12 -10 -7 -4 -2 -4 -5 -5 -9 -21 -18 -17
-5 -2 -3 -11 0 -6 -13 -16 -50 0 -23 -199 -122 -86 -17 -17 -20 -28 -23 -33 -30 -30 -30 -20 -33 -25 -16 -3 -1 -4 -4 -3 -5 -14 -25 -62 -28 -5 -12 -8 -7 -6 -4 -3 -2 -8 -16 -3 -9
-1 0 -7 -6 -9 -6 0 -15 -44 -85 -121 -148 -159 -93 -62 -45 -40 -27 -31 -41 -65 -36 -23 -17 -41 -37 -5 -2 -3 -4 -2 -12 -11 -18 -75 -24 -29 -10 -13 -10 -2 -3 -2 -1 -1 -9 -12 -9 -4
0 -2 -5 -23 -3 -3 -5 -18 -8 -33 -75 -37 -85 -100 -47 -28 -72 -62 -30 -35 -45 -96 -29 -19 -38 -23 -5 -2 -4 -6 -3 -9 -10 -11 -20 -17 -36 -79 0 -6 -5 -7 -3 -3 -4 -5 -8 -5 -11
0 0 0 -4 -14 -12 -2 -3 -123 -45 -107 -37 -72 -68 -70 -89 -6 -19 -39 -71 -45 -21 -11 -20 -23 -14 -4 -2 -4 -4 -5 -9 -2 -6 -9 -5 -76 -22 -13 -2 -1 -5 -8 -8 -6 -6 -15 -10 -8
0 0 0 0 0 -2 -38 -3 0 -5 -17 -10 -33 -73 -63 -65 -39 -10 -15 -57 -51 -33 -38 -22 -8 -25 -17 -5 -26 -4 -18 -1 -4 -4 -3 -5 -15 -8 -12 -3 -5 -1 -2 -5 -7 -13 -2 -4 -2
Wind_Speed
18 19 18 15 17 20 27 30 26 28 25 15 16 19 21 12 20 23 29 25 26 25 25 21 18 16 15 13 13 13 14 16 16 17 17 17 19 20 18 18 19 17 18 17 16 18 14 14 8
18 19 12 12 18 26 28 25 28 24 23 18 18 20 23 26 27 30 27 27 26 26 24 21 18 16 16 15 14 14 14 14 15 15 16 18 17 17 17 18 17 14 17 16 14 12 11 10 2
18 18 16 20 21 24 26 25 24 24 26 23 24 19 21 26 25 26 23 21 27 24 22 22 21 20 18 16 16 15 14 14 15 16 18 18 16 18 17 17 16 13 10 14 11 11 6 5 2
16 15 16 16 22 21 24 23 26 23 18 18 23 26 24 23 26 27 24 17 23 23 21 21 22 21 20 19 17 15 16 16 17 20 18 18 15 16 15 12 12 12 11 14 10 11 4 1 9
15 13 14 16 18 10 21 24 25 20 19 12 25 27 26 23 26 24 26 27 23 22 22 21 22 23 22 20 18 19 18 16 17 18 19 21 14 15 12 11 13 15 12 9 8 7 3 4 11
17 14 14 14 12 14 20 24 17 13 20 25 25 27 26 26 23 25 24 25 27 25 22 23 23 23 23 22 20 19 17 15 14 15 15 19 7 16 13 8 8 11 3 3 1 1 4 10 12
17 18 15 15 15 15 16 18 10 18 18 22 23 28 27 27 21 23 25 25 21 21 22 23 24 23 22 22 24 20 15 16 15 16 13 13 6 16 18 8 5 3 1 7 12 20 22 19 17
20 19 12 9 14 4 9 5 16 14 17 21 23 24 29 27 23 26 26 20 23 21 11 25 24 24 24 24 25 26 26 24 21 24 29 18 16 10 7 6 2 1 5 18 22 24 25 27 25
19 19 16 10 16 14 20 6 8 6 23 15 17 25 25 26 25 23 18 22 19 22 26 25 23 23 23 24 23 24 25 25 25 27 33 34 29 24 18 2 8 10 14 21 25 24 25 23 21
12 20 20 15 6 17 23 8 12 12 17 11 18 22 24 25 20 26 27 23 23 23 23 24 22 25 26 23 27 18 25 25 17 22 23 21 17 17 2 17 21 23 23 20 21 22 20 20 20
18 24 18 14 7 7 17 3 2 8 7 17 20 21 25 20 23 26 24 24 23 24 25 24 24 25 24 24 27 27 25 4 11 24 21 19 8 12 25 25 25 24 22 15 15 18 19 17 19
15 16 14 12 6 9 19 4 4 4 4 16 17 22 22 24 27 26 25 24 23 23 24 23 23 25 24 25 25 26 27 29 28 30 22 20 24 25 26 25 24 21 27 20 20 16 12 14 2
14 12 12 10 4 3 17 3 2 15 13 12 17 20 21 24 26 25 24 25 24 23 26 21 22 23 18 23 27 26 25 26 26 30 15 16 15 16 23 23 17 23 10 17 18 24 16 16 10
11 11 8 7 4 8 10 8 10 9 3 13 16 17 21 22 24 19 23 22 21 24 21 19 22 25 14 9 14 24 27 26 29 26 27 20 23 22 21 19 20 11 25 18 21 19 22 20 13
6 7 7 7 9 8 11 15 15 5 5 12 14 17 20 20 12 19 22 22 23 23 16 19 25 24 23 25 28 28 24 24 27 23 18 14 23 17 19 20 16 16 21 20 21 18 18 19 17
11 13 11 9 7 17 17 21 17 7 8 12 15 16 13 16 11 16 19 24 22 19 20 26 27 23 29 28 20 24 25 26 24 26 23 16 18 19 17 18 22 17 18 19 18 19 18 25 22
20 21 14 12 12 20 25 20 28 22 10 15 16 12 11 5 10 12 17 19 17 18 25 24 17 23 26 7 19 23 22 24 23 20 23 19 21 19 16 21 19 21 15 15 10 12 11 18 20
29 29 17 11 14 19 22 30 28 32 29 16 12 10 9 5 7 9 17 14 14 19 27 18 18 23 14 22 20 23 23 21 20 19 15 19 18 18 14 18 20 12 12 17 18 14 17 10 13
24 23 19 8 7 16 25 19 38 30 26 32 10 9 7 15 4 10 12 13 14 21 21 18 22 9 21 26 26 24 22 21 9 19 21 20 21 17 16 12 9 12 15 15 11 17 16 12 23
31 21 15 14 6 15 22 30 33 31 28 24 13 11 9 12 23 10 12 12 16 16 11 10 15 20 27 26 21 22 22 17 22 22 19 15 15 19 16 14 10 25 20 16 23 20 17 17 10
33 22 17 21 4 13 13 15 20 31 31 29 30 14 10 11 38 8 10 12 15 16 16 14 18 25 27 13 12 10 16 18 9 18 21 22 21 20 17 15 16 19 13 14 18 18 15 14 14
27 13 14 13 5 16 13 17 20 32 37 33 36 22 27 20 11 8 10 11 13 15 17 18 15 18 27 23 18 15 25 24 22 21 22 21 21 20 19 18 12 17 17 16 17 19 14 14 12
14 13 13 9 9 11 15 15 18 30 42 42 42 36 16 15 14 14 14 4 5 13 15 15 14 18 21 15 15 5 19 20 21 12 13 20 21 22 21 17 20 21 20 19 18 18 13 12 13
9 9 11 13 16 20 16 16 21 14 40 50 37 38 31 25 23 10 37 12 12 10 12 14 14 14 11 11 4 16 11 19 21 9 13 18 20 21 21 18 20 20 18 19 18 19 16 13 15
22 25 27 24 16 22 6 19 23 25 31 23 20 40 32 36 32 12 26 8 7 10 10 13 13 10 7 27 6 5 7 23 23 22 14 15 20 20 18 16 15 18 18 20 19 19 19 16 16
29 31 29 28 22 19 16 21 22 20 28 36 42 44 38 31 20 36 15 11 11 14 14 11 10 7 8 14 6 5 12 18 20 2 14 17 20 10 12 16 13 20 17 18 13 19 20 18 18
25 29 31 25 19 23 22 20 12 5 7 27 40 35 35 30 36 40 12 11 11 13 38 10 9 6 7 9 4 7 9 20 18 14 17 15 16 12 9 22 14 12 18 16 8 18 20 19 18
31 23 29 24 29 26 25 23 16 5 20 6 25 24 28 19 19 44 14 13 13 31 25 10 7 6 6 5 3 5 4 5 9 13 10 8 13 12 25 23 20 7 9 13 21 21 20 19 22
30 32 27 32 24 23 30 23 10 14 24 6 13 25 25 39 38 29 16 17 18 11 9 8 5 3 4 4 3 1 2 3 3 5 9 7 8 8 16 19 14 9 9 14 18 18 21 10 9
32 30 34 33 34 32 31 27 10 7 24 25 16 32 21 33 40 31 21 16 18 10 9 8 11 5 6 3 2 1 1 2 2 3 5 7 6 6 6 4 10 11 12 15 16 18 19 19 15
Wind_Direction
148 172 182 212 169 141 97 87 75 83 69 32 24 44 69 164 79 77 107 91 91 89 89 71 56 45 35 26 22 22 25 34 36 39 41 39 45 50 44 46 46 42 42 39 36 39 29 26 20
164 170 276 224 162 100 88 79 94 77 70 41 33 41 57 60 76 93 97 101 93 98 85 71 57 45 40 35 27 30 31 32 35 39 43 47 46 47 45 46 45 38 41 37 31 27 23 20 6
160 179 111 163 117 96 91 94 84 82 95 58 57 45 61 78 81 88 80 88 93 82 76 74 71 62 51 41 43 39 34 32 39 49 52 52 47 52 47 48 44 37 26 31 27 27 14 9 185
136 122 140 107 105 115 93 84 99 86 60 48 65 62 65 72 84 86 83 77 73 74 71 72 75 70 64 61 46 41 44 44 50 66 59 55 48 49 44 36 35 32 28 33 25 25 7 244 178
134 147 173 87 87 175 78 95 104 72 65 30 85 82 77 77 85 82 88 101 85 76 80 73 74 78 71 66 55 61 58 49 53 62 65 69 51 51 37 32 38 44 34 27 21 16 359 192 177
291 14 284 18 40 205 86 109 67 42 66 91 81 86 83 96 84 93 91 91 101 82 74 78 81 80 74 70 65 63 58 52 45 56 59 66 49 57 43 29 31 39 23 11 216 261 197 173 175
289 272 316 64 81 244 87 97 44 70 71 84 82 92 96 101 82 92 99 92 73 70 67 85 87 80 74 75 84 71 58 62 61 66 60 59 42 61 59 33 32 24 222 185 167 144 138 148 156
284 302 299 43 102 310 218 7 84 57 73 87 88 98 111 102 85 105 88 63 68 69 13 123 102 93 88 84 95 98 106 95 82 91 112 86 73 52 36 39 195 229 201 160 145 133 130 127 134
287 288 306 49 119 108 232 50 273 23 120 77 76 106 101 109 101 87 73 81 72 75 100 119 93 85 85 86 78 89 97 97 101 153 138 121 102 84 160 229 190 183 173 149 135 136 133 139 147
320 283 292 315 83 143 215 56 107 89 98 50 83 95 105 105 90 112 107 90 84 89 99 98 84 100 111 72 102 62 123 131 174 180 201 183 80 172 229 176 160 145 146 150 142 138 152 152 149
306 275 303 323 10 124 241 69 18 73 288 101 105 103 114 99 104 119 109 100 89 105 112 99 96 106 130 94 110 95 138 148 202 182 176 168 173 90 153 151 143 140 132 185 187 167 159 171 174
308 317 313 338 33 251 246 251 299 22 289 102 104 113 107 113 122 118 109 95 91 93 105 93 86 129 119 126 117 115 123 102 150 163 180 182 163 156 139 143 151 154 111 152 150 174 193 177 279
294 325 345 345 19 331 230 247 24 242 227 98 109 116 112 115 125 113 98 95 93 89 123 80 89 149 159 104 114 94 93 129 124 130 179 176 175 181 158 158 187 102 207 175 158 133 170 175 195
315 322 355 351 347 269 236 239 246 121 105 110 114 114 118 115 119 93 106 95 95 111 91 75 97 144 184 89 51 118 122 131 118 130 125 163 152 156 165 171 165 86 109 157 147 160 154 169 182
351 346 349 303 269 274 246 242 240 240 125 119 119 120 120 115 92 102 107 105 102 99 74 84 115 136 155 154 117 132 149 150 123 146 164 182 158 180 162 169 182 173 153 154 148 162 167 167 173
294 306 289 302 280 261 254 230 232 238 132 128 127 124 115 114 95 102 104 118 105 85 94 123 124 92 134 145 171 152 146 144 147 138 157 182 179 173 173 174 160 178 168 162 164 163 178 159 163
258 265 289 315 292 242 230 234 222 227 138 135 135 129 122 123 101 100 103 105 87 90 131 117 81 103 124 123 171 165 165 156 158 166 151 167 165 174 187 172 179 176 193 202 216 211 200 183 178
249 244 279 303 257 243 245 243 230 220 220 147 145 142 137 145 105 104 111 96 86 101 141 93 90 104 84 179 182 166 155 174 171 181 190 170 182 184 197 175 170 222 213 173 176 205 194 225 217
263 266 275 312 309 279 239 261 221 228 233 220 172 173 159 132 137 114 109 98 93 116 114 97 109 64 107 160 152 164 180 176 233 181 165 168 162 194 195 213 269 240 210 184 229 195 207 217 173
252 262 270 294 351 286 260 262 221 232 232 235 221 185 182 230 219 124 118 107 108 106 91 81 97 116 152 161 202 188 165 208 175 169 183 210 201 183 198 204 352 133 176 184 141 178 196 195 246
248 263 280 274 15 296 277 273 233 235 231 233 224 213 197 157 190 143 131 117 117 115 115 102 115 143 171 246 93 246 213 107 228 205 161 177 154 171 183 217 31 170 216 202 186 196 219 211 152
254 289 285 276 345 306 278 271 262 229 229 230 223 229 227 224 175 168 170 130 124 122 123 123 112 122 169 199 212 97 162 168 160 164 158 139 182 192 163 169 2 165 189 199 208 190 227 251 274
272 274 267 293 326 317 273 285 253 223 216 215 206 222 216 182 221 225 149 160 141 124 122 120 121 132 144 248 250 360 228 220 174 76 79 200 198 178 164 114 184 134 181 192 192 202 252 314 309
290 256 276 308 185 270 276 281 249 260 194 205 223 221 233 229 230 210 204 145 143 132 127 125 124 129 117 112 36 243 289 241 218 79 96 128 153 159 156 124 142 186 184 192 184 209 246 300 48
260 251 254 264 286 277 313 262 263 186 231 192 222 216 225 228 230 192 229 220 203 230 168 129 127 124 117 177 70 35 56 155 199 189 250 270 177 156 133 118 117 138 147 190 203 208 214 257 268
258 256 252 258 280 283 290 282 274 154 153 165 188 215 223 229 234 225 179 227 234 163 211 137 134 126 127 135 102 72 113 136 162 35 294 254 257 291 102 140 117 157 139 167 120 208 194 220 207
262 254 257 261 294 286 273 289 296 139 215 217 203 173 228 239 226 218 202 184 222 239 206 154 144 134 140 131 102 292 295 248 263 306 280 282 287 317 329 201 141 114 152 150 58 187 222 241 259
257 274 253 261 262 276 256 261 261 264 244 205 164 167 170 218 196 203 213 227 205 171 198 160 151 147 150 144 118 104 84 328 318 302 321 346 306 315 232 214 174 16 350 287 248 240 266 281 253
254 257 267 263 263 275 266 278 356 305 260 228 160 162 167 184 227 232 212 185 178 178 183 186 182 206 188 170 139 105 34 74 41 356 332 2 17 103 147 167 271 335 337 301 281 281 260 354 349
258 259 258 261 257 265 266 282 316 14 260 246 165 171 165 176 185 236 242 191 217 220 209 211 246 181 167 195 182 141 22 337 26 5 356 345 16 97 111 55 318 312 312 299 303 289 285 288 309